Time,TemperatureF,DewpointF,PressureIn,WindDirection,WindDirectionDegrees,WindSpeedMPH,WindSpeedGustMPH,Humidity,HourlyPrecipIn,Conditions,Clouds,dailyrainin,SoftwareType,DateUTC
2013-02-25 00:03:00,36.7,29.8,29.91,North,0,4.3,4.3,76,0.00,,---,0.00,VWS V14.01,2013-02-25 06:03:00,
2013-02-25 00:08:00,36.7,29.8,29.91,NNE,22,0.0,5.6,76,0.00,,---,0.00,VWS V14.01,2013-02-25 06:08:00,
2013-02-25 00:13:00,36.7,29.8,29.91,NNE,22,10.1,10.1,76,0.00,,---,0.00,VWS V14.01,2013-02-25 06:13:00,
2013-02-25 00:19:00,36.7,29.8,29.91,NE,45,6.0,7.8,76,0.00,,---,0.00,VWS V14.01,2013-02-25 06:19:00,
2013-02-25 00:23:00,36.7,29.8,29.91,NNE,22,2.9,7.4,76,0.00,,---,0.00,VWS V14.01,2013-02-25 06:23:00,
2013-02-25 00:28:00,36.5,29.7,29.91,NE,45,1.6,6.3,76,0.00,,---,0.00,VWS V14.01,2013-02-25 06:28:00,
2013-02-25 00:33:00,36.5,29.3,29.91,NE,45,6.5,6.9,75,0.00,,---,0.00,VWS V14.01,2013-02-25 06:33:00,
2013-02-25 00:38:00,36.3,29.2,29.91,NE,45,7.2,7.8,75,0.00,,---,0.00,VWS V14.01,2013-02-25 06:38:00,
2013-02-25 00:43:00,36.3,29.2,29.91,NNE,22,3.8,6.5,75,0.00,,---,0.00,VWS V14.01,2013-02-25 06:43:00,
2013-02-25 00:48:00,36.3,29.2,29.91,North,0,5.6,7.4,75,0.00,,---,0.00,VWS V14.01,2013-02-25 06:48:00,
2013-02-25 00:54:00,36.3,29.2,29.91,North,0,0.0,7.4,75,0.00,,---,0.00,VWS V14.01,2013-02-25 06:54:00,
2013-02-25 00:58:00,36.3,29.2,29.91,NE,45,0.0,7.4,75,0.00,,---,0.00,VWS V14.01,2013-02-25 06:58:00,
2013-02-25 01:03:00,36.1,29.0,29.91,North,0,3.1,6.5,75,0.00,,---,0.00,VWS V14.01,2013-02-25 07:03:00,
2013-02-25 01:08:00,36.1,29.0,29.91,NNW,338,0.0,6.3,75,0.00,,---,0.00,VWS V14.01,2013-02-25 07:08:00,
2013-02-25 01:14:00,36.1,29.0,29.91,NNE,22,2.0,8.1,75,0.00,,---,0.00,VWS V14.01,2013-02-25 07:14:00,
2013-02-25 01:19:00,36.1,29.0,29.91,NNE,22,5.4,6.0,75,0.00,,---,0.00,VWS V14.01,2013-02-25 07:19:00,
2013-02-25 01:24:00,36.1,29.0,29.91,NE,45,4.5,6.5,75,0.00,,---,0.00,VWS V14.01,2013-02-25 07:24:00,
2013-02-25 01:29:00,36.1,29.0,29.91,NNE,22,10.7,10.7,75,0.00,,---,0.00,VWS V14.01,2013-02-25 07:29:00,
2013-02-25 01:35:00,36.1,29.0,29.91,NE,45,5.8,9.8,75,0.00,,---,0.00,VWS V14.01,2013-02-25 07:35:00,
2013-02-25 01:40:00,36.0,28.8,29.91,NE,45,4.0,6.3,75,0.00,,---,0.00,VWS V14.01,2013-02-25 07:40:00,
2013-02-25 01:46:00,35.8,28.6,29.91,NNE,22,11.0,11.0,75,0.00,,---,0.00,VWS V14.01,2013-02-25 07:46:00,
2013-02-25 01:51:00,35.8,29.0,29.91,NE,45,0.0,7.6,76,0.00,,---,0.00,VWS V14.01,2013-02-25 07:51:00,
2013-02-25 01:56:00,35.8,29.0,29.91,NNE,22,6.5,7.4,76,0.00,,---,0.00,VWS V14.01,2013-02-25 07:56:00,
2013-02-25 02:02:00,35.8,29.3,29.91,NNW,338,6.5,6.5,77,0.00,,---,0.00,VWS V14.01,2013-02-25 08:02:00,
2013-02-25 02:07:00,35.6,29.1,29.91,NE,45,5.8,8.7,77,0.00,,---,0.00,VWS V14.01,2013-02-25 08:07:00,
2013-02-25 02:12:00,35.4,28.9,29.91,NE,45,4.9,9.8,77,0.00,,---,0.00,VWS V14.01,2013-02-25 08:12:00,
2013-02-25 02:17:00,35.4,29.2,29.91,North,0,5.4,7.8,78,0.00,,---,0.00,VWS V14.01,2013-02-25 08:17:00,
2013-02-25 02:23:00,35.4,29.2,29.91,NE,45,5.6,6.5,78,0.00,,---,0.00,VWS V14.01,2013-02-25 08:23:00,
2013-02-25 02:28:00,35.2,29.1,29.91,NNE,22,3.4,6.5,78,0.00,,---,0.00,VWS V14.01,2013-02-25 08:28:00,
2013-02-25 02:34:00,35.1,28.9,29.91,NNE,22,7.2,7.8,78,0.00,,---,0.00,VWS V14.01,2013-02-25 08:34:00,
2013-02-25 02:39:00,35.1,28.9,29.91,ENE,68,3.6,8.7,78,0.00,,---,0.00,VWS V14.01,2013-02-25 08:39:00,
2013-02-25 02:44:00,35.1,28.9,29.91,NE,45,7.4,7.4,78,0.00,,---,0.00,VWS V14.01,2013-02-25 08:44:00,
2013-02-25 02:49:00,35.1,28.9,29.91,NNW,338,2.5,7.6,78,0.00,,---,0.00,VWS V14.01,2013-02-25 08:49:00,
2013-02-25 02:54:00,35.1,28.9,29.91,NNE,22,10.5,10.5,78,0.00,,---,0.00,VWS V14.01,2013-02-25 08:54:00,
2013-02-25 02:59:00,35.1,29.2,29.91,NNE,22,10.1,12.1,79,0.00,,---,0.00,VWS V14.01,2013-02-25 08:59:00,
2013-02-25 03:05:00,34.9,29.0,29.91,North,0,6.5,7.6,79,0.00,,---,0.00,VWS V14.01,2013-02-25 09:05:00,
2013-02-25 03:10:00,34.9,28.7,29.91,North,0,7.4,12.3,78,0.00,,---,0.00,VWS V14.01,2013-02-25 09:10:00,
2013-02-25 03:15:00,34.9,28.7,29.91,NNE,22,4.5,7.4,78,0.00,,---,0.00,VWS V14.01,2013-02-25 09:15:00,
2013-02-25 03:20:00,34.9,28.7,29.91,NE,45,8.5,9.8,78,0.00,,---,0.00,VWS V14.01,2013-02-25 09:20:00,
2013-02-25 03:26:00,34.9,28.7,29.91,NE,45,3.1,8.7,78,0.00,,---,0.00,VWS V14.01,2013-02-25 09:26:00,
2013-02-25 03:31:00,34.9,28.7,29.91,North,0,5.8,7.2,78,0.00,,---,0.00,VWS V14.01,2013-02-25 09:31:00,
2013-02-25 03:36:00,34.7,28.5,29.91,NE,45,8.1,10.1,78,0.00,,---,0.00,VWS V14.01,2013-02-25 09:36:00,
2013-02-25 03:41:00,34.7,28.5,29.91,NNE,22,7.8,10.1,78,0.00,,---,0.00,VWS V14.01,2013-02-25 09:41:00,
2013-02-25 03:47:00,34.7,28.9,29.91,NNE,22,4.0,7.6,79,0.00,,---,0.00,VWS V14.01,2013-02-25 09:47:00,
2013-02-25 03:52:00,34.5,28.4,29.91,NE,45,7.4,10.1,78,0.00,,---,0.00,VWS V14.01,2013-02-25 09:52:00,
2013-02-25 03:57:00,34.5,28.7,29.91,NE,45,6.5,10.5,79,0.00,,---,0.00,VWS V14.01,2013-02-25 09:57:00,
2013-02-25 04:02:00,34.5,28.7,29.91,NE,45,4.9,6.0,79,0.00,,---,0.00,VWS V14.01,2013-02-25 10:02:00,
2013-02-25 04:08:00,34.5,28.7,29.91,NE,45,8.1,10.1,79,0.00,,---,0.00,VWS V14.01,2013-02-25 10:08:00,
2013-02-25 04:13:00,34.5,28.4,29.91,NE,45,12.5,12.5,78,0.00,,---,0.00,VWS V14.01,2013-02-25 10:13:00,
2013-02-25 04:18:00,34.5,28.4,29.91,NE,45,7.8,11.4,78,0.00,,---,0.00,VWS V14.01,2013-02-25 10:18:00,
2013-02-25 04:23:00,34.5,28.4,29.91,NNE,22,8.7,8.7,78,0.00,,---,0.00,VWS V14.01,2013-02-25 10:23:00,
2013-02-25 04:29:00,34.3,28.2,29.91,NNE,22,7.4,13.0,78,0.00,,---,0.00,VWS V14.01,2013-02-25 10:29:00,
2013-02-25 04:34:00,34.3,28.5,29.91,NE,45,5.8,9.8,79,0.00,,---,0.00,VWS V14.01,2013-02-25 10:34:00,
2013-02-25 04:39:00,34.3,28.5,29.91,NE,45,8.5,11.0,79,0.00,,---,0.00,VWS V14.01,2013-02-25 10:39:00,
2013-02-25 04:44:00,34.2,28.3,29.91,North,0,6.3,13.2,79,0.00,,---,0.00,VWS V14.01,2013-02-25 10:44:00,
2013-02-25 04:50:00,34.0,28.5,29.91,NE,45,12.8,12.8,80,0.00,,---,0.00,VWS V14.01,2013-02-25 10:50:00,
2013-02-25 04:55:00,34.0,28.8,29.91,NE,45,7.4,9.8,81,0.00,,---,0.00,VWS V14.01,2013-02-25 10:55:00,
2013-02-25 05:01:00,33.8,28.9,29.91,NE,45,4.9,10.5,82,0.00,,---,0.00,VWS V14.01,2013-02-25 11:01:00,
2013-02-25 05:06:00,33.8,29.5,29.91,ENE,68,8.1,10.3,84,0.00,,---,0.00,VWS V14.01,2013-02-25 11:06:00,
2013-02-25 05:11:00,33.6,29.6,29.91,NNE,22,5.8,10.3,85,0.00,,---,0.00,VWS V14.01,2013-02-25 11:11:00,
2013-02-25 05:16:00,33.6,29.9,29.91,NE,45,6.3,12.8,86,0.00,,---,0.00,VWS V14.01,2013-02-25 11:16:00,
2013-02-25 05:21:00,33.4,29.7,29.91,ENE,68,9.8,12.5,86,0.00,,---,0.00,VWS V14.01,2013-02-25 11:21:00,
2013-02-25 05:26:00,33.4,30.0,29.91,NE,45,13.4,13.4,87,0.00,,---,0.00,VWS V14.01,2013-02-25 11:26:00,
2013-02-25 05:31:00,33.4,30.0,29.91,NNE,22,12.5,12.5,87,0.00,,---,0.00,VWS V14.01,2013-02-25 11:31:00,
2013-02-25 05:36:00,33.4,29.7,29.91,NNE,22,9.6,13.2,86,0.00,,---,0.00,VWS V14.01,2013-02-25 11:36:00,
2013-02-25 05:41:00,33.4,29.7,29.91,NE,45,6.0,8.5,86,0.00,,---,0.00,VWS V14.01,2013-02-25 11:41:00,
2013-02-25 05:46:00,33.4,29.7,29.91,North,0,11.4,11.4,86,0.00,,---,0.00,VWS V14.01,2013-02-25 11:46:00,
2013-02-25 05:51:00,33.4,29.7,29.91,NNE,22,7.2,9.8,86,0.00,,---,0.00,VWS V14.01,2013-02-25 11:51:00,
2013-02-25 05:56:00,33.4,30.0,29.91,ENE,68,5.4,10.7,87,0.00,,---,0.00,VWS V14.01,2013-02-25 11:56:00,
2013-02-25 06:01:00,33.3,29.8,29.91,North,0,8.7,13.0,87,0.00,,---,0.00,VWS V14.01,2013-02-25 12:01:00,
2013-02-25 06:07:00,33.3,29.8,29.91,NNE,22,6.5,10.5,87,0.00,,---,0.00,VWS V14.01,2013-02-25 12:07:00,
2013-02-25 06:12:00,33.3,30.1,29.88,NNE,22,10.1,13.0,88,0.00,,---,0.00,VWS V14.01,2013-02-25 12:12:00,
2013-02-25 06:17:00,33.3,30.1,29.88,NE,45,5.6,12.8,88,0.00,,---,0.00,VWS V14.01,2013-02-25 12:17:00,
2013-02-25 06:22:00,33.1,29.9,29.88,NNE,22,8.7,8.7,88,0.00,,---,0.00,VWS V14.01,2013-02-25 12:22:00,
2013-02-25 06:27:00,33.1,29.9,29.91,NE,45,5.4,8.1,88,0.00,,---,0.00,VWS V14.01,2013-02-25 12:27:00,
2013-02-25 06:33:00,33.1,29.9,29.91,NNE,22,7.8,14.5,88,0.00,,---,0.00,VWS V14.01,2013-02-25 12:33:00,
2013-02-25 06:38:00,33.3,29.8,29.91,North,0,7.4,10.5,87,0.00,,---,0.00,VWS V14.01,2013-02-25 12:38:00,
2013-02-25 06:43:00,33.3,29.8,29.91,NNE,22,6.0,10.7,87,0.00,,---,0.00,VWS V14.01,2013-02-25 12:43:00,
2013-02-25 06:49:00,33.3,29.5,29.91,NE,45,5.8,8.5,86,0.00,,---,0.00,VWS V14.01,2013-02-25 12:49:00,
2013-02-25 06:56:00,33.3,29.2,29.91,ENE,68,13.2,17.0,85,0.00,,---,0.00,VWS V14.01,2013-02-25 12:56:00,
2013-02-25 07:02:00,33.3,29.2,29.91,NE,45,9.6,9.6,85,0.00,,---,0.00,VWS V14.01,2013-02-25 13:02:00,
2013-02-25 07:07:00,33.3,29.0,29.91,NNE,22,11.2,15.4,84,0.00,,---,0.00,VWS V14.01,2013-02-25 13:07:00,
2013-02-25 08:04:00,33.6,27.8,29.91,NNE,22,7.4,12.5,79,0.00,,---,0.00,VWS V14.01,2013-02-25 14:04:00,
2013-02-25 08:10:00,33.6,27.5,29.91,NE,45,8.1,9.8,78,0.00,,---,0.00,VWS V14.01,2013-02-25 14:10:00,
2013-02-25 08:15:00,33.8,27.7,29.88,NNE,22,4.3,10.3,78,0.00,,---,0.00,VWS V14.01,2013-02-25 14:15:00,
2013-02-25 08:21:00,33.8,27.7,29.88,NE,45,13.4,13.4,78,0.00,,---,0.00,VWS V14.01,2013-02-25 14:21:00,
2013-02-25 08:27:00,33.6,27.5,29.91,NNE,22,5.8,6.5,78,0.00,,---,0.00,VWS V14.01,2013-02-25 14:27:00,
2013-02-25 08:32:00,33.6,27.8,29.91,North,0,8.5,12.3,79,0.00,,---,0.00,VWS V14.01,2013-02-25 14:32:00,
2013-02-25 08:37:00,33.6,27.5,29.91,NE,45,11.4,11.4,78,0.00,,---,0.00,VWS V14.01,2013-02-25 14:37:00,
2013-02-25 08:42:00,33.6,27.5,29.88,NNE,22,10.7,15.2,78,0.00,,---,0.00,VWS V14.01,2013-02-25 14:42:00,
2013-02-25 08:53:00,33.8,27.7,29.88,NNE,22,17.7,17.7,78,0.00,,---,0.00,VWS V14.01,2013-02-25 14:53:00,
2013-02-25 08:59:00,33.8,27.4,29.91,NE,45,8.5,10.5,77,0.00,,---,0.00,VWS V14.01,2013-02-25 14:59:00,
2013-02-25 09:10:00,34.0,27.2,29.91,ENE,68,12.8,17.0,76,0.00,,---,0.00,VWS V14.01,2013-02-25 15:10:00,
2013-02-25 09:16:00,34.0,27.2,29.91,NNE,22,7.8,9.6,76,0.00,,---,0.00,VWS V14.01,2013-02-25 15:16:00,
2013-02-25 09:21:00,34.2,27.1,29.91,NE,45,7.8,10.1,75,0.00,,---,0.00,VWS V14.01,2013-02-25 15:21:00,
2013-02-25 09:26:00,34.2,27.1,29.91,ENE,68,5.6,8.7,75,0.00,,---,0.00,VWS V14.01,2013-02-25 15:26:00,
2013-02-25 09:31:00,34.3,26.9,29.88,NE,45,6.0,10.7,74,0.00,,---,0.00,VWS V14.01,2013-02-25 15:31:00,
2013-02-25 09:37:00,34.3,26.9,29.88,NNE,22,7.2,13.6,74,0.00,,---,0.00,VWS V14.01,2013-02-25 15:37:00,
2013-02-25 09:42:00,34.3,26.6,29.88,ENE,68,15.2,16.1,73,0.00,,---,0.00,VWS V14.01,2013-02-25 15:42:00,
2013-02-25 09:47:00,34.5,26.8,29.88,NNE,22,5.8,12.1,73,0.00,,---,0.00,VWS V14.01,2013-02-25 15:47:00,
2013-02-25 09:52:00,34.5,26.8,29.88,NE,45,19.0,19.0,73,0.00,,---,0.00,VWS V14.01,2013-02-25 15:52:00,
2013-02-25 09:58:00,34.5,26.8,29.88,NNE,22,10.5,10.7,73,0.00,,---,0.00,VWS V14.01,2013-02-25 15:58:00,
2013-02-25 10:03:00,34.3,26.6,29.88,ENE,68,17.2,17.2,73,0.00,,---,0.00,VWS V14.01,2013-02-25 16:03:00,
2013-02-25 10:08:00,34.3,26.6,29.88,NNE,22,8.1,13.6,73,0.00,,---,0.00,VWS V14.01,2013-02-25 16:08:00,
2013-02-25 10:13:00,34.5,26.8,29.88,NE,45,12.3,12.3,73,0.00,,---,0.00,VWS V14.01,2013-02-25 16:13:00,
2013-02-25 10:18:00,34.5,26.8,29.88,NE,45,12.3,12.8,73,0.00,,---,0.00,VWS V14.01,2013-02-25 16:18:00,
2013-02-25 10:23:00,34.5,26.8,29.88,NNE,22,10.5,10.5,73,0.00,,---,0.00,VWS V14.01,2013-02-25 16:23:00,
2013-02-25 10:28:00,34.5,26.4,29.85,NE,45,7.8,19.2,72,0.00,,---,0.00,VWS V14.01,2013-02-25 16:28:00,
2013-02-25 10:33:00,34.5,26.4,29.85,NE,45,8.5,15.4,72,0.00,,---,0.00,VWS V14.01,2013-02-25 16:33:00,
2013-02-25 10:38:00,34.3,26.3,29.85,North,0,6.5,18.6,72,0.00,,---,0.00,VWS V14.01,2013-02-25 16:38:00,
2013-02-25 10:43:00,34.5,26.4,29.85,NW,315,13.9,13.9,72,0.00,,---,0.00,VWS V14.01,2013-02-25 16:43:00,
2013-02-25 10:48:00,34.5,26.4,29.85,North,0,10.7,11.0,72,0.00,,---,0.00,VWS V14.01,2013-02-25 16:48:00,
2013-02-25 10:54:00,34.5,26.4,29.85,East,90,9.8,13.6,72,0.00,,---,0.00,VWS V14.01,2013-02-25 16:54:00,
2013-02-25 10:59:00,34.5,26.4,29.88,ENE,68,14.5,14.5,72,0.00,,---,0.00,VWS V14.01,2013-02-25 16:59:00,
2013-02-25 11:04:00,34.5,26.4,29.88,NE,45,11.0,16.8,72,0.00,,---,0.00,VWS V14.01,2013-02-25 17:04:00,
2013-02-25 11:09:00,34.5,26.4,29.88,ENE,68,17.2,17.2,72,0.00,,---,0.00,VWS V14.01,2013-02-25 17:09:00,
2013-02-25 11:15:00,34.5,26.4,29.88,ENE,68,10.3,14.8,72,0.00,,---,0.00,VWS V14.01,2013-02-25 17:15:00,
2013-02-25 11:20:00,34.3,27.2,29.88,East,90,12.3,12.3,75,0.00,,---,0.00,VWS V14.01,2013-02-25 17:20:00,
2013-02-25 11:25:00,34.0,27.9,29.88,ENE,68,9.8,11.0,78,0.00,,---,0.00,VWS V14.01,2013-02-25 17:25:00,
2013-02-25 11:40:00,33.6,29.3,29.88,NE,45,10.5,10.5,84,0.00,,---,0.00,VWS V14.01,2013-02-25 17:40:00,
2013-02-25 11:48:00,33.1,29.9,29.88,North,0,15.4,17.5,88,0.00,,---,0.00,VWS V14.01,2013-02-25 17:48:00,
2013-02-25 11:54:00,32.9,30.3,29.88,ENE,68,13.2,17.2,90,0.00,,---,0.00,VWS V14.01,2013-02-25 17:54:00,
2013-02-25 12:09:00,32.7,31.2,29.88,East,90,6.0,12.1,94,0.00,,---,0.00,VWS V14.01,2013-02-25 18:09:00,
2013-02-25 13:04:00,32.5,31.8,29.85,NNE,22,10.3,13.2,97,0.00,,---,0.00,VWS V14.01,2013-02-25 19:04:00,
2013-02-25 13:09:00,32.7,32.2,29.85,ENE,68,14.8,17.2,98,0.00,,---,0.00,VWS V14.01,2013-02-25 19:09:00,
2013-02-25 13:14:00,32.9,32.1,29.82,NNE,22,10.7,11.0,97,0.00,,---,0.00,VWS V14.01,2013-02-25 19:14:00,
2013-02-25 13:19:00,33.1,32.1,29.82,NNE,22,15.4,17.7,96,0.00,,---,0.00,VWS V14.01,2013-02-25 19:19:00,
2013-02-25 13:24:00,33.4,32.2,29.82,NE,45,9.4,10.7,95,0.00,,---,0.00,VWS V14.01,2013-02-25 19:24:00,
2013-02-25 13:29:00,33.8,32.5,29.79,NE,45,15.4,15.4,95,0.00,,---,0.00,VWS V14.01,2013-02-25 19:29:00,
2013-02-25 13:34:00,34.0,32.4,29.79,East,90,12.1,16.6,94,0.00,,---,0.00,VWS V14.01,2013-02-25 19:34:00,
2013-02-25 13:39:00,34.0,32.2,29.79,ENE,68,8.1,13.0,93,0.00,,---,0.00,VWS V14.01,2013-02-25 19:39:00,
2013-02-25 13:55:00,33.4,31.9,29.79,NNE,22,8.7,13.0,94,0.00,,---,0.00,VWS V14.01,2013-02-25 19:55:00,
2013-02-25 14:00:00,33.4,32.2,29.79,NE,45,12.3,12.3,95,0.00,,---,0.00,VWS V14.01,2013-02-25 20:00:00,
2013-02-25 14:05:00,33.3,32.0,29.79,NE,45,16.1,20.8,95,0.00,,---,0.00,VWS V14.01,2013-02-25 20:05:00,
2013-02-25 14:10:00,33.3,32.0,29.79,NE,45,13.6,23.3,95,0.00,,---,0.00,VWS V14.01,2013-02-25 20:10:00,
2013-02-25 14:16:00,33.3,32.0,29.79,ENE,68,7.8,13.0,95,0.00,,---,0.00,VWS V14.01,2013-02-25 20:16:00,
2013-02-25 14:21:00,33.4,32.2,29.79,NE,45,10.7,17.2,95,0.00,,---,0.00,VWS V14.01,2013-02-25 20:21:00,
2013-02-25 14:26:00,33.6,32.1,29.79,NE,45,10.1,14.5,94,0.00,,---,0.00,VWS V14.01,2013-02-25 20:26:00,
2013-02-25 14:31:00,33.6,31.8,29.76,NE,45,10.3,12.5,93,0.00,,---,0.00,VWS V14.01,2013-02-25 20:31:00,
2013-02-25 14:36:00,33.6,31.8,29.76,NE,45,17.0,18.1,93,0.00,,---,0.00,VWS V14.01,2013-02-25 20:36:00,
2013-02-25 14:41:00,33.6,31.5,29.76,ENE,68,8.7,19.7,92,0.00,,---,0.00,VWS V14.01,2013-02-25 20:41:00,
2013-02-25 14:46:00,33.6,31.5,29.79,NE,45,12.5,14.1,92,0.00,,---,0.00,VWS V14.01,2013-02-25 20:46:00,
2013-02-25 14:51:00,33.6,31.5,29.79,NE,45,13.2,16.1,92,0.00,,---,0.00,VWS V14.01,2013-02-25 20:51:00,
2013-02-25 14:56:00,33.6,31.3,29.79,NE,45,8.7,14.1,91,0.00,,---,0.00,VWS V14.01,2013-02-25 20:56:00,
2013-02-25 15:01:00,33.8,31.5,29.79,North,0,10.5,18.1,91,0.00,,---,0.00,VWS V14.01,2013-02-25 21:01:00,
2013-02-25 15:06:00,33.8,31.5,29.79,ENE,68,14.8,14.8,91,0.00,,---,0.00,VWS V14.01,2013-02-25 21:06:00,
2013-02-25 15:11:00,33.8,31.7,29.79,ENE,68,11.4,20.4,92,0.00,,---,0.00,VWS V14.01,2013-02-25 21:11:00,
2013-02-25 15:16:00,33.8,31.7,29.76,NE,45,17.2,17.2,92,0.00,,---,0.00,VWS V14.01,2013-02-25 21:16:00,
2013-02-25 15:21:00,33.8,31.7,29.76,NNE,22,17.5,17.5,92,0.00,,---,0.00,VWS V14.01,2013-02-25 21:21:00,
2013-02-25 15:26:00,33.8,31.7,29.76,NE,45,17.0,17.0,92,0.00,,---,0.00,VWS V14.01,2013-02-25 21:26:00,
2013-02-25 15:31:00,33.8,31.5,29.76,NNE,22,6.5,13.9,91,0.00,,---,0.00,VWS V14.01,2013-02-25 21:31:00,
2013-02-25 15:36:00,33.8,31.5,29.76,NNW,338,8.1,12.5,91,0.00,,---,0.00,VWS V14.01,2013-02-25 21:36:00,
2013-02-25 15:41:00,33.8,31.5,29.76,NNE,22,12.3,17.7,91,0.00,,---,0.00,VWS V14.01,2013-02-25 21:41:00,
2013-02-25 15:46:00,33.8,31.5,29.76,ENE,68,11.0,13.2,91,0.00,,---,0.00,VWS V14.01,2013-02-25 21:46:00,
2013-02-25 15:51:00,33.8,31.5,29.76,NE,45,15.9,21.0,91,0.00,,---,0.00,VWS V14.01,2013-02-25 21:51:00,
2013-02-25 15:56:00,33.8,31.5,29.76,NW,315,11.4,13.4,91,0.00,,---,0.00,VWS V14.01,2013-02-25 21:56:00,
2013-02-25 16:01:00,33.8,31.5,29.79,NE,45,11.9,22.2,91,0.00,,---,0.00,VWS V14.01,2013-02-25 22:01:00,
2013-02-25 16:06:00,33.8,31.5,29.79,North,0,9.8,19.7,91,0.00,,---,0.00,VWS V14.01,2013-02-25 22:06:00,
2013-02-25 16:12:00,33.8,31.5,29.76,NE,45,13.9,13.9,91,0.00,,---,0.00,VWS V14.01,2013-02-25 22:12:00,
2013-02-25 16:17:00,33.8,31.5,29.76,NNE,22,11.0,15.2,91,0.00,,---,0.00,VWS V14.01,2013-02-25 22:17:00,
2013-02-25 16:22:00,33.8,31.7,29.76,NE,45,8.5,17.2,92,0.00,,---,0.00,VWS V14.01,2013-02-25 22:22:00,
2013-02-25 16:27:00,33.8,31.7,29.76,NE,45,16.3,17.0,92,0.00,,---,0.00,VWS V14.01,2013-02-25 22:27:00,
2013-02-25 16:32:00,33.8,31.7,29.76,NNW,338,14.3,19.0,92,0.00,,---,0.00,VWS V14.01,2013-02-25 22:32:00,
2013-02-25 16:37:00,33.8,31.7,29.76,NNE,22,17.2,17.2,92,0.00,,---,0.00,VWS V14.01,2013-02-25 22:37:00,
2013-02-25 16:43:00,33.8,31.7,29.76,NNE,22,17.0,17.0,92,0.00,,---,0.00,VWS V14.01,2013-02-25 22:43:00,
2013-02-25 16:48:00,33.8,31.7,29.76,NE,45,10.7,19.7,92,0.00,,---,0.00,VWS V14.01,2013-02-25 22:48:00,
2013-02-25 16:53:00,33.8,32.0,29.76,NNE,22,17.7,17.7,93,0.00,,---,0.00,VWS V14.01,2013-02-25 22:53:00,
2013-02-25 16:58:00,33.8,32.0,29.76,NNE,22,8.5,22.4,93,0.00,,---,0.00,VWS V14.01,2013-02-25 22:58:00,
2013-02-25 17:03:00,33.6,31.8,29.76,NNE,22,6.3,13.2,93,0.00,,---,0.00,VWS V14.01,2013-02-25 23:03:00,
2013-02-25 17:08:00,33.6,31.8,29.76,North,0,12.5,12.5,93,0.00,,---,0.00,VWS V14.01,2013-02-25 23:08:00,
2013-02-25 17:13:00,33.6,31.8,29.76,NE,45,21.0,21.0,93,0.00,,---,0.00,VWS V14.01,2013-02-25 23:13:00,
2013-02-25 17:18:00,33.6,31.8,29.76,NE,45,19.7,19.7,93,0.00,,---,0.00,VWS V14.01,2013-02-25 23:18:00,
2013-02-25 17:23:00,33.6,31.8,29.76,NNE,22,12.3,12.8,93,0.00,,---,0.00,VWS V14.01,2013-02-25 23:23:00,
2013-02-25 17:28:00,33.6,31.8,29.74,NNW,338,12.8,12.8,93,0.00,,---,0.00,VWS V14.01,2013-02-25 23:28:00,
2013-02-25 17:33:00,33.6,31.8,29.74,NE,45,14.5,17.5,93,0.00,,---,0.00,VWS V14.01,2013-02-25 23:33:00,
2013-02-25 17:38:00,33.6,31.5,29.74,NE,45,8.5,14.1,92,0.00,,---,0.00,VWS V14.01,2013-02-25 23:38:00,
2013-02-25 17:43:00,33.6,31.5,29.74,North,0,11.2,18.1,92,0.00,,---,0.00,VWS V14.01,2013-02-25 23:43:00,
2013-02-25 17:48:00,33.6,31.8,29.74,NE,45,13.0,19.7,93,0.00,,---,0.00,VWS V14.01,2013-02-25 23:48:00,
2013-02-25 17:53:00,33.6,31.8,29.74,NNE,22,11.2,23.3,93,0.00,,---,0.00,VWS V14.01,2013-02-25 23:53:00,
2013-02-25 17:58:00,33.6,31.8,29.74,NNE,22,13.0,17.7,93,0.00,,---,0.00,VWS V14.01,2013-02-25 23:58:00,
2013-02-25 18:04:00,33.4,31.9,29.74,NNW,338,12.5,14.5,94,0.00,,---,0.00,VWS V14.01,2013-02-26 00:04:00,
2013-02-25 18:09:00,33.4,31.9,29.74,NNE,22,11.2,17.5,94,0.00,,---,0.00,VWS V14.01,2013-02-26 00:09:00,
2013-02-25 18:15:00,33.3,31.7,29.74,NE,45,12.5,20.4,94,0.00,,---,0.00,VWS V14.01,2013-02-26 00:15:00,
2013-02-25 18:20:00,33.3,32.0,29.74,North,0,8.5,19.5,95,0.00,,---,0.00,VWS V14.01,2013-02-26 00:20:00,
2013-02-25 18:25:00,33.3,32.0,29.74,North,0,14.8,16.3,95,0.00,,---,0.00,VWS V14.01,2013-02-26 00:25:00,
2013-02-25 18:30:00,33.3,32.0,29.76,ENE,68,12.5,17.7,95,0.00,,---,0.00,VWS V14.01,2013-02-26 00:30:00,
2013-02-25 18:35:00,33.3,32.0,29.76,NE,45,19.0,19.0,95,0.00,,---,0.00,VWS V14.01,2013-02-26 00:35:00,
2013-02-25 18:40:00,33.3,32.0,29.76,NE,45,10.1,10.3,95,0.00,,---,0.00,VWS V14.01,2013-02-26 00:40:00,
2013-02-25 18:45:00,33.3,32.2,29.76,NE,45,7.6,15.4,96,0.00,,---,0.00,VWS V14.01,2013-02-26 00:45:00,
2013-02-25 18:50:00,33.3,32.2,29.76,NNE,22,19.7,19.7,96,0.00,,---,0.00,VWS V14.01,2013-02-26 00:50:00,
2013-02-25 18:55:00,33.3,32.2,29.76,NE,45,9.8,15.4,96,0.00,,---,0.00,VWS V14.01,2013-02-26 00:55:00,
2013-02-25 19:00:00,33.3,32.2,29.79,NNE,22,12.3,13.0,96,0.00,,---,0.00,VWS V14.01,2013-02-26 01:00:00,
2013-02-25 19:06:00,33.3,32.2,29.79,NNE,22,9.6,12.5,96,0.00,,---,0.00,VWS V14.01,2013-02-26 01:06:00,
2013-02-25 19:11:00,33.1,32.1,29.79,NE,45,8.5,19.2,96,0.00,,---,0.00,VWS V14.01,2013-02-26 01:11:00,
2013-02-25 19:16:00,33.1,32.3,29.82,North,0,6.5,7.8,97,0.00,,---,0.00,VWS V14.01,2013-02-26 01:16:00,
2013-02-25 19:22:00,33.1,32.3,29.82,NE,45,13.2,17.0,97,0.00,,---,0.00,VWS V14.01,2013-02-26 01:22:00,
2013-02-25 19:27:00,33.1,32.3,29.76,NNW,338,10.1,10.1,97,0.00,,---,0.00,VWS V14.01,2013-02-26 01:27:00,
2013-02-25 19:32:00,33.1,32.3,29.76,North,0,11.4,14.5,97,0.00,,---,0.00,VWS V14.01,2013-02-26 01:32:00,
2013-02-25 19:37:00,33.1,32.3,29.76,NNE,22,9.8,9.8,97,0.00,,---,0.00,VWS V14.01,2013-02-26 01:37:00,
2013-02-25 19:42:00,32.9,32.1,29.76,North,0,9.4,10.1,97,0.00,,---,0.00,VWS V14.01,2013-02-26 01:42:00,
2013-02-25 19:47:00,32.9,32.1,29.76,NNW,338,6.3,10.5,97,0.00,,---,0.00,VWS V14.01,2013-02-26 01:47:00,
2013-02-25 19:52:00,32.7,32.2,29.76,North,0,7.4,8.7,98,0.00,,---,0.00,VWS V14.01,2013-02-26 01:52:00,
2013-02-25 19:57:00,32.7,32.2,29.79,North,0,7.6,7.6,98,0.00,,---,0.00,VWS V14.01,2013-02-26 01:57:00,
2013-02-25 20:02:00,32.7,32.2,29.79,NE,45,0.9,4.0,98,0.00,,---,0.00,VWS V14.01,2013-02-26 02:02:00,
2013-02-25 20:07:00,32.5,32.0,29.79,North,0,8.1,10.1,98,0.00,,---,0.00,VWS V14.01,2013-02-26 02:07:00,
2013-02-25 20:12:00,32.5,32.0,29.79,North,0,10.3,10.5,98,0.00,,---,0.00,VWS V14.01,2013-02-26 02:12:00,
2013-02-25 20:17:00,32.5,32.0,29.79,ENE,68,10.1,13.0,98,0.00,,---,0.00,VWS V14.01,2013-02-26 02:17:00,
2013-02-25 20:22:00,32.5,32.0,29.79,NNE,22,14.5,14.5,98,0.00,,---,0.00,VWS V14.01,2013-02-26 02:22:00,
2013-02-25 20:27:00,32.5,32.0,29.79,NNE,22,7.8,12.8,98,0.00,,---,0.00,VWS V14.01,2013-02-26 02:27:00,
2013-02-25 20:32:00,32.5,32.0,29.79,NNW,338,6.5,7.8,98,0.00,,---,0.00,VWS V14.01,2013-02-26 02:32:00,
2013-02-25 20:37:00,32.5,32.0,29.79,NNW,338,13.6,13.6,98,0.00,,---,0.00,VWS V14.01,2013-02-26 02:37:00,
2013-02-25 20:42:00,32.5,32.0,29.76,NNW,338,11.0,11.0,98,0.00,,---,0.00,VWS V14.01,2013-02-26 02:42:00,
2013-02-25 20:47:00,32.5,32.0,29.76,NNE,22,8.1,9.4,98,0.00,,---,0.00,VWS V14.01,2013-02-26 02:47:00,
2013-02-25 20:53:00,32.5,32.0,29.76,NW,315,6.9,12.1,98,0.00,,---,0.00,VWS V14.01,2013-02-26 02:53:00,
2013-02-25 20:58:00,32.5,32.0,29.79,NNW,338,9.8,12.8,98,0.00,,---,0.00,VWS V14.01,2013-02-26 02:58:00,
2013-02-25 21:03:00,32.4,31.9,29.79,NNE,22,3.6,13.2,98,0.00,,---,0.00,VWS V14.01,2013-02-26 03:03:00,
2013-02-25 21:08:00,32.4,31.9,29.79,North,0,9.8,10.3,98,0.00,,---,0.00,VWS V14.01,2013-02-26 03:08:00,
2013-02-25 21:13:00,32.4,31.9,29.79,NNE,22,11.0,14.8,98,0.00,,---,0.00,VWS V14.01,2013-02-26 03:13:00,
2013-02-25 21:18:00,32.4,31.9,29.79,North,0,9.6,9.6,98,0.00,,---,0.00,VWS V14.01,2013-02-26 03:18:00,
2013-02-25 21:24:00,32.4,31.9,29.79,NNE,22,12.8,14.8,98,0.00,,---,0.00,VWS V14.01,2013-02-26 03:24:00,
2013-02-25 21:29:00,32.2,31.7,29.76,NNW,338,11.0,11.0,98,0.00,,---,0.00,VWS V14.01,2013-02-26 03:29:00,
2013-02-25 21:35:00,32.2,31.7,29.76,ENE,68,6.3,10.5,98,0.00,,---,0.00,VWS V14.01,2013-02-26 03:35:00,
2013-02-25 21:40:00,32.2,31.7,29.76,WNW,292,4.0,11.0,98,0.00,,---,0.00,VWS V14.01,2013-02-26 03:40:00,
2013-02-25 21:45:00,32.2,31.7,29.79,NNE,22,10.3,10.3,98,0.00,,---,0.00,VWS V14.01,2013-02-26 03:45:00,
2013-02-25 21:50:00,32.2,31.7,29.79,NNE,22,6.5,12.1,98,0.00,,---,0.00,VWS V14.01,2013-02-26 03:50:00,
2013-02-25 21:55:00,32.0,31.5,29.79,NNE,22,8.5,11.2,98,0.00,,---,0.00,VWS V14.01,2013-02-26 03:55:00,
2013-02-25 22:00:00,32.0,31.5,29.79,NNE,22,8.1,12.3,98,0.00,,---,0.00,VWS V14.01,2013-02-26 04:00:00,
2013-02-25 22:06:00,32.0,31.5,29.79,NNE,22,10.1,14.3,98,0.00,,---,0.00,VWS V14.01,2013-02-26 04:06:00,
2013-02-25 22:11:00,31.8,31.3,29.79,NNE,22,0.0,0.0,98,0.00,,---,0.00,VWS V14.01,2013-02-26 04:11:00,
2013-02-25 22:16:00,31.8,31.3,29.79,NNE,22,0.0,0.0,98,0.00,,---,0.00,VWS V14.01,2013-02-26 04:16:00,
2013-02-25 22:21:00,31.8,31.3,29.79,NNE,22,0.0,0.0,98,0.00,,---,0.00,VWS V14.01,2013-02-26 04:21:00,
2013-02-25 22:26:00,31.8,31.3,29.79,NNE,22,0.0,0.0,98,0.00,,---,0.00,VWS V14.01,2013-02-26 04:26:00,
2013-02-25 22:31:00,31.8,31.3,29.79,NNE,22,0.0,0.0,98,0.00,,---,0.00,VWS V14.01,2013-02-26 04:31:00,
2013-02-25 22:36:00,31.6,31.1,29.79,NNE,22,0.0,0.0,98,0.00,,---,0.00,VWS V14.01,2013-02-26 04:36:00,
2013-02-25 22:41:00,31.6,31.1,29.79,NNE,22,0.0,0.0,98,0.00,,---,0.00,VWS V14.01,2013-02-26 04:41:00,
2013-02-25 22:46:00,31.6,31.1,29.79,NNE,22,0.0,0.0,98,0.00,,---,0.00,VWS V14.01,2013-02-26 04:46:00,
2013-02-25 22:51:00,31.6,31.1,29.79,NNE,22,0.0,0.0,98,0.00,,---,0.00,VWS V14.01,2013-02-26 04:51:00,
2013-02-25 22:56:00,31.6,31.1,29.79,NNE,22,0.0,0.0,98,0.00,,---,0.00,VWS V14.01,2013-02-26 04:56:00,
2013-02-25 23:00:00,31.6,31.1,29.79,NNE,22,0.0,0.0,98,0.00,,---,0.00,VWS V14.01,2013-02-26 05:00:00,
2013-02-25 23:01:00,31.6,31.1,29.79,NNE,22,0.0,0.0,98,0.00,,---,0.00,VWS V14.01,2013-02-26 05:01:00,
2013-02-25 23:04:00,31.6,31.1,29.79,NNE,22,0.0,0.0,98,0.00,,---,0.00,VWS V14.01,2013-02-26 05:04:00,
2013-02-25 23:09:00,31.6,31.1,29.79,NNE,22,0.0,0.0,98,0.00,,---,0.00,VWS V14.01,2013-02-26 05:09:00,
2013-02-25 23:10:00,31.6,31.1,29.79,NNE,22,0.0,0.0,98,0.00,,---,0.00,VWS V14.01,2013-02-26 05:10:00,
2013-02-25 23:15:00,31.6,31.1,29.79,NNE,22,0.0,0.0,98,0.00,,---,0.00,VWS V14.01,2013-02-26 05:15:00,
2013-02-25 23:20:00,31.6,31.1,29.79,NNE,22,0.0,0.0,98,0.00,,---,0.00,VWS V14.01,2013-02-26 05:20:00,
2013-02-25 23:25:00,31.6,31.1,29.79,NNE,22,0.0,0.0,98,0.00,,---,0.00,VWS V14.01,2013-02-26 05:25:00,
2013-02-25 23:30:00,31.8,31.3,29.79,NNE,22,0.0,0.0,98,0.00,,---,0.00,VWS V14.01,2013-02-26 05:30:00,
2013-02-25 23:35:00,31.8,31.3,29.79,NNE,22,0.0,0.0,98,0.00,,---,0.00,VWS V14.01,2013-02-26 05:35:00,
2013-02-25 23:40:00,31.6,31.1,29.79,NNE,22,0.0,0.0,98,0.00,,---,0.00,VWS V14.01,2013-02-26 05:40:00,
2013-02-25 23:45:00,31.6,31.1,29.79,NNE,22,0.0,0.0,98,0.00,,---,0.00,VWS V14.01,2013-02-26 05:45:00,
2013-02-25 23:50:00,31.5,31.0,29.79,NNE,22,0.0,0.0,98,0.00,,---,0.00,VWS V14.01,2013-02-26 05:50:00,
2013-02-25 23:55:00,31.5,31.0,29.79,NNE,22,0.0,0.0,98,0.00,,---,0.00,VWS V14.01,2013-02-26 05:55:00,